|
NORAD ID: 36897 Int'l Code: 1979-095AN
Perigee: 714.3 km
Apogee: 716.3 km
Inclination: 81.2 °
Period: 98.9 minutes
Semi major axis: 7086 km
Launch date: October 31, 1979
Source: Commonwealth of Independent States (former USSR) (CIS)
Note: This is SATELLITE DEBRIS
Two Line Element Set (TLE):
1 36897U 79095AN 13129.24662047 .00009575 00000-0 22013-2 0 3350
2 36897 081.1821 326.5327 0001412 162.7531 206.6719 14.55377884532909
Source:
NASA's NSSDC Master Catalog entry for METEOR 2-5 DEB
|